#timestamp,LO_Frequency,Hit,StdDev 
1622858415.1,286047004.6,N
1622858416.0,286047004.6,N
1622858435.8,286047006.2,N
1622858455.7,286047005.0,N
1622858475.5,286047006.4,N
1622858495.3,286047007.0,N
1622858515.2,286047005.3,N
1622858535.0,286047006.0,N
1622858535.9,286047006.0,Y
1622858555.8,286047002.6,P
1622858575.6,286046999.8,N
1622858595.4,286047002.6,N
1622858615.3,286047001.3,N
1622858635.1,286047003.9,N
1622858655.8,286047005.9,Y
1622858675.7,286047000.2,P
1622858695.5,286046999.8,N
1622858715.4,286046998.6,N
1622858735.2,286046998.5,N
1622858755.0,286047001.0,N
1622858755.9,286047001.0,N
1622858775.8,286047002.1,N
1622858795.6,286047001.4,N
1622858815.5,286047002.0,N
1622858835.3,286047002.3,N
1622858855.1,286047001.8,N
1622858875.9,286047001.8,N
1622858895.7,286046998.1,N
1622858915.5,286047000.3,N
1622858935.4,286047002.5,N
1622858955.2,286047001.8,N
1622858975.1,286047001.5,N
1622858976.0,286047001.5,N
1622858995.8,286047004.3,Y
1622859015.6,286047000.3,P
1622859035.5,286047001.2,P
1622859055.3,286046999.9,N
1622859075.1,286047001.9,Y
1622859095.9,286046999.7,P
1622859115.7,286046998.9,N
1622859135.6,286047000.0,N
1622859155.4,286047000.8,N
1622859175.2,286047002.7,Y
1622859195.1,286047002.2,P
1622859196.0,286047002.2,N
1622859215.8,286047002.7,N
1622859235.7,286047000.2,N
1622859255.5,286046998.2,N
1622859275.3,286046998.7,N
1622859295.2,286047000.5,N
1622859315.0,286047000.9,N
1622859315.9,286047000.9,N
1622859335.7,286047000.1,N
1622859355.6,286047002.0,N
1622859375.4,286046998.4,N
1622859395.3,286047001.2,N
1622859415.1,286047002.5,N
1622859416.0,286047002.5,N
1622859435.8,286047001.3,N
1622859455.7,286047004.3,Y
1622859475.5,286047001.5,P
1622859495.3,286047001.7,P
1622859515.2,286046999.8,N
1622859535.0,286047002.1,N
1622859535.9,286047002.1,N
1622859555.8,286047001.5,N
1622859575.6,286047002.5,Y
1622859595.4,286047002.8,P
1622859615.3,286047000.1,N
1622859635.1,286047000.9,N
1622859655.9,286046996.5,Y
1622859675.7,286046999.5,P
1622859695.5,286046999.2,N
1622859715.4,286046998.1,N
1622859735.2,286047000.8,N
1622859755.0,286046999.9,N
1622859755.9,286046999.9,N
1622859775.8,286047000.6,N
1622859795.6,286047001.1,N
1622859815.5,286047000.5,N
1622859835.3,286046996.6,Y
1622859855.1,286046996.9,P
1622859875.9,286046997.4,N
1622859895.7,286046998.0,N
1622859915.5,286046997.1,N
1622859935.4,286046996.8,N
1622859955.2,286046997.3,N
1622859975.1,286046998.4,N
1622859976.0,286046998.4,N
1622859995.8,286046996.8,Y
1622860015.7,286046999.8,P
1622860035.5,286047002.8,N
1622860055.3,286047000.9,N
1622860075.2,286046999.0,N
1622860095.0,286046997.1,N
1622860095.9,286046997.1,N
1622860115.7,286047001.2,N
1622860135.6,286047002.2,N
1622860155.4,286047002.5,N
1622860175.3,286047001.8,N
1622860195.1,286047002.5,N
1622860196.0,286047002.5,N
1622860215.8,286047000.3,N
1622860235.7,286047002.2,N
1622860255.5,286047001.9,N
1622860275.3,286046998.2,N
1622860295.2,286046999.5,N
1622860315.0,286046998.2,N
1622860315.9,286046998.2,N
1622860335.8,286047002.8,N
1622860355.6,286047000.5,N
1622860375.4,286047000.5,N
1622860395.3,286046999.0,N
1622860415.1,286046998.3,N
1622860435.9,286047000.9,N
1622860455.7,286047002.6,N
1622860475.5,286047000.3,N
1622860495.4,286047000.3,N
1622860515.2,286046999.2,N
1622860535.1,286047000.6,N
1622860536.0,286047000.6,N
1622860555.8,286047000.3,N
1622860575.6,286047001.1,N
1622860595.5,286047002.8,N
1622860615.3,286046999.7,N
1622860635.2,286047001.5,N
1622860655.9,286047002.3,N
1622860675.7,286047001.7,N
1622860695.6,286047001.5,N
1622860715.4,286046999.7,N
1622860735.3,286047002.4,N
1622860755.1,286047001.7,N
1622860756.0,286047001.7,N
1622860775.8,286047002.6,N
1622860795.7,286047000.1,N
1622860815.5,286047000.8,N
1622860835.3,286047002.3,N
1622860855.2,286047001.3,N
1622860875.0,286047002.8,N
1622860875.9,286047002.8,N
1622860895.8,286047002.3,N
1622860915.6,286047002.2,N
1622860935.5,286047002.2,N
1622860955.3,286047001.9,N
1622860975.1,286047001.5,N
1622860995.9,286047003.6,Y
1622861015.7,286047003.2,P
1622861035.6,286047004.4,P
1622861055.4,286047002.5,N
1622861075.2,286047000.1,N
1622861095.1,286047000.6,N
1622861096.0,286047000.6,N
1622861115.8,286047000.1,N
1622861135.7,286047002.8,N
1622861155.5,286046999.9,N
1622861175.3,286047000.8,N
1622861195.2,286046998.4,N
1622861215.9,286046997.9,N
1622861235.7,286046995.3,N
1622861255.6,286046997.4,N
1622861275.4,286046997.3,N
1622861295.2,286046997.1,N
1622861315.1,286046999.4,N
1622861316.0,286046999.4,N
1622861335.8,286047000.8,N
1622861355.7,286047002.7,N
1622861375.5,286047002.4,N
1622861395.3,286046999.7,N
1622861415.2,286047000.7,N
1622861435.0,286047000.2,N
1622861435.9,286047000.2,N
1622861455.8,286047000.2,N
1622861475.6,286046999.8,N
1622861495.4,286047002.3,N
1622861515.3,286047000.2,N
1622861535.1,286047002.0,N
1622861555.8,286047002.2,N
1622861575.7,286047003.9,N
1622861595.5,286047001.3,N
1622861615.4,286047004.3,N
1622861635.2,286047001.7,N
1622861655.0,286047002.4,N
1622861655.9,286047002.4,N
1622861675.8,286047002.0,N
1622861695.6,286047002.6,N
1622861715.5,286047000.8,N
1622861735.3,286047000.9,N
1622861755.1,286047000.1,N
1622861775.9,286046999.7,N
1622861795.7,286046999.0,N
1622861815.5,286046995.7,N
1622861835.4,286046996.5,N
1622861855.2,286047000.9,N
1622861875.1,286047000.2,N
1622861876.0,286047000.2,N
1622861895.8,286047000.0,N
1622861915.6,286047000.7,N
1622861935.5,286047000.2,N
1622861955.3,286046999.7,N
1622861975.2,286046999.7,N
1622861995.9,286047002.5,N
